Terminal Aerodrome Forecast
Issued by NWS

Home | Current Version | Previous Version | Text Only | Print | Product List | Glossary On
Versions: 1 2 3 4 5 6 7 8 9 10 11 12 13 14 15 16 17
619
FTUS43 KPAH 240523
TAFCGI
TAF
KCGI 240523Z 2406/2506 VRB04KT P6SM SKC
      TEMPO 2407/2410 BKN020
     FM241500 16007KT P6SM SKC
     FM242000 15012KT P6SM SCT130=

USA.gov is the U.S. government's official web portal to all federal, state and local government web resources and services.